Flag for Afghanistan Weather past 2 weeks in Herat, Afghanistan

Now
59 °F

Clear.


Feels Like: 60 °F
Forecast: 37 / 50 °F
Wind: 3 mph from North

Location: Herat Airport

Current Time: Dec 21, 2014 at 2:37:08 PM

Latest Report: Dec 21, 2014 at 1:25 PM


Visibility: N/A

Pressure: 29.98 "Hg

Humidity: 23%

Dew point: 21 °F

Location of HeratLocation

Historic Weather in Herat — Graph

°F

Herat temperature yesterday

Maximum temperature yesterday: 55 °F (at 1:25 PM)
Minimum temperature yesterday: 36 °F (at 3:24 AM)
Average temperature yesterday: 46 °F

Past Weeks' High & Low Weather Summary

 TemperatureHumidityPressure
High59 °F (Dec 6, 1:24 PM)93% (Dec 18, 11:25 PM)30.54 "Hg (Dec 18, 11:25 PM)
Low21 °F (Dec 9, 7:25 AM)13% (Dec 14, 1:24 PM)29.98 "Hg (Dec 21, 1:25 PM)
Average40 °F46%30.29 "Hg
* Reported Dec 6 1:24 PM — Dec 21 1:25 PM, Herat, Weather by CustomWeather, © 2014

Note: Actual official high and low records may vary slightly from our data, if they occured in-between our weather recording intervals... More about our weather records

Advertising

Herat weather history for previous 24 hours

 ConditionsComfort  
Time TempWeatherWind HumidityBarometerVisibility
1:25 PM
Dec 21
59 °FClear.3 mph23%29.98 "HgN/A
12:24 PM57 °FClear.6 mph29%30.01 "Hg5 mi
11:24 AM54 °FClear.3 mph35%30.07 "Hg6 mi
10:25 AM50 °FSunny.5 mph37%30.07 "Hg10 mi
9:25 AM41 °FSunny.6 mph53%30.07 "Hg10 mi
8:24 AM36 °FSunny.6 mph60%30.07 "Hg10 mi
7:24 AM37 °FClear.1 mph60%30.07 "Hg6 mi
6:24 AM36 °FClear.2 mph70%30.07 "Hg6 mi
5:24 AM43 °FClear.6 mph46%30.07 "Hg6 mi
4:24 AM39 °FClear.5 mph52%30.07 "Hg10 mi
3:24 AM41 °FFog.3 mph49%30.09 "HgN/A
2:24 AM41 °FFog.3 mph57%30.09 "HgN/A
1:25 AM41 °FClear.1 mph61%30.12 "Hg10 mi
12:24 AM43 °FFog.2 mph49%30.12 "HgN/A
11:25 PM
Dec 20
45 °FFog.3 mph46%30.15 "HgN/A
10:24 PM46 °FFog.5 mph50%30.15 "HgN/A
9:24 PM46 °FPassing clouds.3 mph57%30.18 "Hg4 mi
8:24 PM52 °FPassing clouds.3 mph30%30.15 "Hg4 mi
7:24 PM50 °FPassing clouds.5 mph40%30.15 "Hg4 mi
6:24 PM52 °FPassing clouds.5 mph41%30.18 "Hg4 mi
5:24 PM54 °FPartly sunny.1 mph35%30.15 "Hg6 mi
4:25 PM55 °FPassing clouds.No wind28%30.18 "Hg6 mi
3:25 PM55 °FPartly sunny.2 mph31%30.15 "Hg6 mi
2:25 PM55 °FPartly sunny.3 mph31%30.18 "Hg6 mi
Weather by CustomWeather, © 2014

See weather overviewHow to use our weather pages